HVDC transfer

From www.emi.ea.govt.nz provided by the Electricity Authority (New Zealand)
Run at: 20240504002813

Parameters
Date range,23 Feb 2023 - 22 Mar 2023
Time scale,Trading period
Show,Average flow (MW)

Period start,Period end,Trading period,Direction,Energy transfer (GWh),Peak flow (MW),Average flow (MW)
23/02/2023 00:00:00,23/02/2023 00:30:00,1,Southward at Benmore,-0.055,-110,-110
23/02/2023 00:30:00,23/02/2023 01:00:00,2,Southward at Benmore,-0.066,-133,-133
23/02/2023 01:00:00,23/02/2023 01:30:00,3,Southward at Benmore,-0.065,-130,-130
23/02/2023 01:30:00,23/02/2023 02:00:00,4,Southward at Benmore,-0.073,-147,-147
23/02/2023 02:00:00,23/02/2023 02:30:00,5,Southward at Benmore,-0.071,-143,-143
23/02/2023 02:30:00,23/02/2023 03:00:00,6,Southward at Benmore,-0.086,-173,-173
23/02/2023 03:00:00,23/02/2023 03:30:00,7,Southward at Benmore,-0.074,-149,-149
23/02/2023 03:30:00,23/02/2023 04:00:00,8,Southward at Benmore,-0.085,-170,-170
23/02/2023 04:00:00,23/02/2023 04:30:00,9,Southward at Benmore,-0.076,-152,-152
23/02/2023 04:30:00,23/02/2023 05:00:00,10,Southward at Benmore,-0.069,-139,-139
23/02/2023 05:00:00,23/02/2023 05:30:00,11,Southward at Benmore,-0.056,-112,-112
23/02/2023 05:30:00,23/02/2023 06:00:00,12,Southward at Benmore,-0.034,-68,-68
23/02/2023 06:00:00,23/02/2023 06:30:00,13,Southward at Benmore,-0.035,-71,-71
23/02/2023 06:30:00,23/02/2023 07:00:00,14,Southward at Benmore,-0.035,-71,-71
23/02/2023 07:00:00,23/02/2023 07:30:00,15,Southward at Benmore,-0.040,-80,-80
23/02/2023 07:30:00,23/02/2023 08:00:00,16,Southward at Benmore,-0.031,-63,-63
23/02/2023 08:00:00,23/02/2023 08:30:00,17,Southward at Benmore,-0.004,-8,-8
23/02/2023 08:30:00,23/02/2023 09:00:00,18,Northward at Haywards,0.019,38,38
23/02/2023 09:00:00,23/02/2023 09:30:00,19,Northward at Haywards,0.031,62,62
23/02/2023 09:30:00,23/02/2023 10:00:00,20,Northward at Haywards,0.038,75,75
23/02/2023 10:00:00,23/02/2023 10:30:00,21,Northward at Haywards,0.045,90,90
23/02/2023 10:30:00,23/02/2023 11:00:00,22,Northward at Haywards,0.051,102,102
23/02/2023 11:00:00,23/02/2023 11:30:00,23,Northward at Haywards,0.047,94,94
23/02/2023 11:30:00,23/02/2023 12:00:00,24,Northward at Haywards,0.043,86,86
23/02/2023 12:00:00,23/02/2023 12:30:00,25,Northward at Haywards,0.059,118,118
23/02/2023 12:30:00,23/02/2023 13:00:00,26,Northward at Haywards,0.069,138,138
23/02/2023 13:00:00,23/02/2023 13:30:00,27,Northward at Haywards,0.065,129,129
23/02/2023 13:30:00,23/02/2023 14:00:00,28,Northward at Haywards,0.060,120,120
23/02/2023 14:00:00,23/02/2023 14:30:00,29,Northward at Haywards,0.084,168,168
23/02/2023 14:30:00,23/02/2023 15:00:00,30,Northward at Haywards,0.094,187,187
23/02/2023 15:00:00,23/02/2023 15:30:00,31,Northward at Haywards,0.098,195,195
23/02/2023 15:30:00,23/02/2023 16:00:00,32,Northward at Haywards,0.088,176,176
23/02/2023 16:00:00,23/02/2023 16:30:00,33,Northward at Haywards,0.075,149,149
23/02/2023 16:30:00,23/02/2023 17:00:00,34,Northward at Haywards,0.066,131,131
23/02/2023 17:00:00,23/02/2023 17:30:00,35,Northward at Haywards,0.070,139,139
23/02/2023 17:30:00,23/02/2023 18:00:00,36,Northward at Haywards,0.051,101,101
23/02/2023 18:00:00,23/02/2023 18:30:00,37,Northward at Haywards,0.037,73,73
23/02/2023 18:30:00,23/02/2023 19:00:00,38,Northward at Haywards,0.004,7,7
23/02/2023 19:30:00,23/02/2023 20:00:00,40,Southward at Benmore,-0.025,-51,-51
23/02/2023 20:00:00,23/02/2023 20:30:00,41,Southward at Benmore,-0.032,-64,-64
23/02/2023 20:30:00,23/02/2023 21:00:00,42,Southward at Benmore,-0.045,-90,-90
23/02/2023 21:00:00,23/02/2023 21:30:00,43,Southward at Benmore,-0.068,-136,-136
23/02/2023 21:30:00,23/02/2023 22:00:00,44,Southward at Benmore,-0.088,-177,-177
23/02/2023 22:00:00,23/02/2023 22:30:00,45,Southward at Benmore,-0.098,-197,-197
23/02/2023 22:30:00,23/02/2023 23:00:00,46,Southward at Benmore,-0.105,-210,-210
23/02/2023 23:00:00,23/02/2023 23:30:00,47,Southward at Benmore,-0.108,-217,-217
23/02/2023 23:30:00,24/02/2023 00:00:00,48,Southward at Benmore,-0.104,-208,-208
24/02/2023 00:00:00,24/02/2023 00:30:00,1,Southward at Benmore,-0.101,-202,-202
24/02/2023 00:30:00,24/02/2023 01:00:00,2,Southward at Benmore,-0.100,-201,-201
24/02/2023 01:00:00,24/02/2023 01:30:00,3,Southward at Benmore,-0.098,-197,-197
24/02/2023 01:30:00,24/02/2023 02:00:00,4,Southward at Benmore,-0.104,-209,-209
24/02/2023 02:00:00,24/02/2023 02:30:00,5,Southward at Benmore,-0.104,-209,-209
24/02/2023 02:30:00,24/02/2023 03:00:00,6,Southward at Benmore,-0.107,-214,-214
24/02/2023 03:00:00,24/02/2023 03:30:00,7,Southward at Benmore,-0.103,-206,-206
24/02/2023 03:30:00,24/02/2023 04:00:00,8,Southward at Benmore,-0.103,-207,-207
24/02/2023 04:00:00,24/02/2023 04:30:00,9,Southward at Benmore,-0.103,-206,-206
24/02/2023 04:30:00,24/02/2023 05:00:00,10,Southward at Benmore,-0.099,-199,-199
24/02/2023 05:00:00,24/02/2023 05:30:00,11,Southward at Benmore,-0.085,-171,-171
24/02/2023 05:30:00,24/02/2023 06:00:00,12,Southward at Benmore,-0.044,-89,-89
24/02/2023 06:00:00,24/02/2023 06:30:00,13,Southward at Benmore,-0.048,-96,-96
24/02/2023 06:30:00,24/02/2023 07:00:00,14,Southward at Benmore,-0.062,-125,-125
24/02/2023 07:00:00,24/02/2023 07:30:00,15,Southward at Benmore,-0.044,-88,-88
24/02/2023 07:30:00,24/02/2023 08:00:00,16,Northward at Haywards,0.003,5,5
24/02/2023 08:00:00,24/02/2023 08:30:00,17,Northward at Haywards,0.018,36,36
24/02/2023 08:30:00,24/02/2023 09:00:00,18,Northward at Haywards,0.050,100,100
24/02/2023 09:00:00,24/02/2023 09:30:00,19,Northward at Haywards,0.064,127,127
24/02/2023 09:30:00,24/02/2023 10:00:00,20,Northward at Haywards,0.079,157,157
24/02/2023 10:00:00,24/02/2023 10:30:00,21,Northward at Haywards,0.088,176,176
24/02/2023 10:30:00,24/02/2023 11:00:00,22,Northward at Haywards,0.105,210,210
24/02/2023 11:00:00,24/02/2023 11:30:00,23,Northward at Haywards,0.114,227,227
24/02/2023 11:30:00,24/02/2023 12:00:00,24,Northward at Haywards,0.076,152,152
24/02/2023 12:00:00,24/02/2023 12:30:00,25,Northward at Haywards,0.084,167,167
24/02/2023 12:30:00,24/02/2023 13:00:00,26,Northward at Haywards,0.087,174,174
24/02/2023 13:00:00,24/02/2023 13:30:00,27,Northward at Haywards,0.085,169,169
24/02/2023 13:30:00,24/02/2023 14:00:00,28,Northward at Haywards,0.095,190,190
24/02/2023 14:00:00,24/02/2023 14:30:00,29,Northward at Haywards,0.091,181,181
24/02/2023 14:30:00,24/02/2023 15:00:00,30,Northward at Haywards,0.103,206,206
24/02/2023 15:00:00,24/02/2023 15:30:00,31,Northward at Haywards,0.097,194,194
24/02/2023 15:30:00,24/02/2023 16:00:00,32,Northward at Haywards,0.108,216,216
24/02/2023 16:00:00,24/02/2023 16:30:00,33,Northward at Haywards,0.098,196,196
24/02/2023 16:30:00,24/02/2023 17:00:00,34,Northward at Haywards,0.124,248,248
24/02/2023 17:00:00,24/02/2023 17:30:00,35,Northward at Haywards,0.111,221,221
24/02/2023 17:30:00,24/02/2023 18:00:00,36,Northward at Haywards,0.102,204,204
24/02/2023 18:00:00,24/02/2023 18:30:00,37,Northward at Haywards,0.077,154,154
24/02/2023 18:30:00,24/02/2023 19:00:00,38,Northward at Haywards,0.064,128,128
24/02/2023 19:00:00,24/02/2023 19:30:00,39,Northward at Haywards,0.041,82,82
24/02/2023 19:30:00,24/02/2023 20:00:00,40,Northward at Haywards,0.039,77,77
24/02/2023 20:00:00,24/02/2023 20:30:00,41,Northward at Haywards,0.036,72,72
24/02/2023 20:30:00,24/02/2023 21:00:00,42,Northward at Haywards,0.026,51,51
24/02/2023 21:00:00,24/02/2023 21:30:00,43,Northward at Haywards,0.017,34,34
24/02/2023 21:30:00,24/02/2023 22:00:00,44,Southward at Benmore,-0.010,-20,-20
24/02/2023 22:00:00,24/02/2023 22:30:00,45,Southward at Benmore,-0.049,-99,-99
24/02/2023 22:30:00,24/02/2023 23:00:00,46,Southward at Benmore,-0.075,-151,-151
24/02/2023 23:00:00,24/02/2023 23:30:00,47,Southward at Benmore,-0.083,-167,-167
24/02/2023 23:30:00,25/02/2023 00:00:00,48,Southward at Benmore,-0.127,-255,-255
25/02/2023 00:00:00,25/02/2023 00:30:00,1,Southward at Benmore,-0.108,-216,-216
25/02/2023 00:30:00,25/02/2023 01:00:00,2,Southward at Benmore,-0.099,-198,-198
25/02/2023 01:00:00,25/02/2023 01:30:00,3,Southward at Benmore,-0.101,-203,-203
25/02/2023 01:30:00,25/02/2023 02:00:00,4,Southward at Benmore,-0.124,-248,-248
25/02/2023 02:00:00,25/02/2023 02:30:00,5,Southward at Benmore,-0.133,-266,-266
25/02/2023 02:30:00,25/02/2023 03:00:00,6,Southward at Benmore,-0.136,-272,-272
25/02/2023 03:00:00,25/02/2023 03:30:00,7,Southward at Benmore,-0.131,-263,-263
25/02/2023 03:30:00,25/02/2023 04:00:00,8,Southward at Benmore,-0.127,-254,-254
25/02/2023 04:00:00,25/02/2023 04:30:00,9,Southward at Benmore,-0.131,-263,-263
25/02/2023 04:30:00,25/02/2023 05:00:00,10,Southward at Benmore,-0.093,-187,-187
26/02/2023 22:00:00,26/02/2023 22:30:00,45,Southward at Benmore,-0.017,-34,-34
26/02/2023 22:30:00,26/02/2023 23:00:00,46,Southward at Benmore,-0.017,-35,-35
26/02/2023 23:00:00,26/02/2023 23:30:00,47,Southward at Benmore,-0.060,-121,-121
26/02/2023 23:30:00,27/02/2023 00:00:00,48,Southward at Benmore,-0.055,-111,-111
27/02/2023 00:00:00,27/02/2023 00:30:00,1,Southward at Benmore,-0.004,-9,-9
27/02/2023 02:30:00,27/02/2023 03:00:00,6,Northward at Haywards,0.014,28,28
27/02/2023 03:00:00,27/02/2023 03:30:00,7,Northward at Haywards,0.017,34,34
27/02/2023 03:30:00,27/02/2023 04:00:00,8,Northward at Haywards,0.018,35,35
27/02/2023 04:00:00,27/02/2023 04:30:00,9,Northward at Haywards,0.021,41,41
27/02/2023 04:30:00,27/02/2023 05:00:00,10,Northward at Haywards,0.031,62,62
27/02/2023 05:00:00,27/02/2023 05:30:00,11,Northward at Haywards,0.047,94,94
27/02/2023 05:30:00,27/02/2023 06:00:00,12,Northward at Haywards,0.108,215,215
27/02/2023 06:00:00,27/02/2023 06:30:00,13,Northward at Haywards,0.124,247,247
27/02/2023 06:30:00,27/02/2023 07:00:00,14,Northward at Haywards,0.152,303,303
27/02/2023 07:00:00,27/02/2023 07:30:00,15,Northward at Haywards,0.165,329,329
27/02/2023 07:30:00,27/02/2023 08:00:00,16,Northward at Haywards,0.143,286,286
27/02/2023 08:00:00,27/02/2023 08:30:00,17,Northward at Haywards,0.163,325,325
27/02/2023 08:30:00,27/02/2023 09:00:00,18,Northward at Haywards,0.172,344,344
27/02/2023 09:00:00,27/02/2023 09:30:00,19,Northward at Haywards,0.180,360,360
27/02/2023 09:30:00,27/02/2023 10:00:00,20,Northward at Haywards,0.172,344,344
27/02/2023 10:00:00,27/02/2023 10:30:00,21,Northward at Haywards,0.162,324,324
27/02/2023 10:30:00,27/02/2023 11:00:00,22,Northward at Haywards,0.163,325,325
27/02/2023 11:00:00,27/02/2023 11:30:00,23,Northward at Haywards,0.149,297,297
27/02/2023 11:30:00,27/02/2023 12:00:00,24,Northward at Haywards,0.143,286,286
27/02/2023 12:00:00,27/02/2023 12:30:00,25,Northward at Haywards,0.149,298,298
27/02/2023 12:30:00,27/02/2023 13:00:00,26,Northward at Haywards,0.153,305,305
27/02/2023 13:00:00,27/02/2023 13:30:00,27,Northward at Haywards,0.105,210,210
27/02/2023 13:30:00,27/02/2023 14:00:00,28,Northward at Haywards,0.108,215,215
27/02/2023 14:00:00,27/02/2023 14:30:00,29,Northward at Haywards,0.109,217,217
27/02/2023 14:30:00,27/02/2023 15:00:00,30,Northward at Haywards,0.108,216,216
27/02/2023 15:00:00,27/02/2023 15:30:00,31,Northward at Haywards,0.151,301,301
27/02/2023 15:30:00,27/02/2023 16:00:00,32,Northward at Haywards,0.135,269,269
27/02/2023 16:00:00,27/02/2023 16:30:00,33,Northward at Haywards,0.126,251,251
27/02/2023 16:30:00,27/02/2023 17:00:00,34,Northward at Haywards,0.111,221,221
27/02/2023 17:00:00,27/02/2023 17:30:00,35,Northward at Haywards,0.126,251,251
27/02/2023 17:30:00,27/02/2023 18:00:00,36,Northward at Haywards,0.096,192,192
27/02/2023 18:00:00,27/02/2023 18:30:00,37,Northward at Haywards,0.078,155,155
27/02/2023 18:30:00,27/02/2023 19:00:00,38,Northward at Haywards,0.064,128,128
27/02/2023 19:00:00,27/02/2023 19:30:00,39,Northward at Haywards,0.061,122,122
27/02/2023 19:30:00,27/02/2023 20:00:00,40,Northward at Haywards,0.066,131,131
27/02/2023 20:00:00,27/02/2023 20:30:00,41,Northward at Haywards,0.043,86,86
27/02/2023 20:30:00,27/02/2023 21:00:00,42,Northward at Haywards,0.051,102,102
27/02/2023 21:00:00,27/02/2023 21:30:00,43,Northward at Haywards,0.039,77,77
27/02/2023 21:30:00,27/02/2023 22:00:00,44,Northward at Haywards,0.038,75,75
27/02/2023 22:00:00,27/02/2023 22:30:00,45,Northward at Haywards,0.010,20,20
27/02/2023 22:30:00,27/02/2023 23:00:00,46,Northward at Haywards,0.021,42,42
27/02/2023 23:00:00,27/02/2023 23:30:00,47,Northward at Haywards,0.013,25,25
28/02/2023 00:00:00,28/02/2023 00:30:00,1,Southward at Benmore,-0.033,-67,-67
28/02/2023 00:30:00,28/02/2023 01:00:00,2,Southward at Benmore,-0.029,-58,-58
28/02/2023 01:00:00,28/02/2023 01:30:00,3,Southward at Benmore,-0.021,-43,-43
28/02/2023 01:30:00,28/02/2023 02:00:00,4,Southward at Benmore,-0.039,-79,-79
28/02/2023 02:00:00,28/02/2023 02:30:00,5,Southward at Benmore,-0.037,-74,-74
28/02/2023 02:30:00,28/02/2023 03:00:00,6,Southward at Benmore,-0.050,-100,-100
28/02/2023 03:00:00,28/02/2023 03:30:00,7,Southward at Benmore,-0.033,-67,-67
28/02/2023 03:30:00,28/02/2023 04:00:00,8,Southward at Benmore,-0.036,-73,-73
28/02/2023 04:00:00,28/02/2023 04:30:00,9,Southward at Benmore,-0.031,-63,-63
28/02/2023 04:30:00,28/02/2023 05:00:00,10,Southward at Benmore,-0.019,-39,-39
28/02/2023 05:00:00,28/02/2023 05:30:00,11,Southward at Benmore,-0.020,-40,-40
28/02/2023 05:30:00,28/02/2023 06:00:00,12,Southward at Benmore,-0.009,-18,-18
28/02/2023 06:00:00,28/02/2023 06:30:00,13,Northward at Haywards,0.029,58,58
28/02/2023 06:30:00,28/02/2023 07:00:00,14,Northward at Haywards,0.056,111,111
28/02/2023 07:00:00,28/02/2023 07:30:00,15,Northward at Haywards,0.065,129,129
28/02/2023 07:30:00,28/02/2023 08:00:00,16,Northward at Haywards,0.060,120,120
28/02/2023 08:00:00,28/02/2023 08:30:00,17,Northward at Haywards,0.066,132,132
28/02/2023 08:30:00,28/02/2023 09:00:00,18,Northward at Haywards,0.084,167,167
28/02/2023 09:00:00,28/02/2023 09:30:00,19,Northward at Haywards,0.089,177,177
28/02/2023 09:30:00,28/02/2023 10:00:00,20,Northward at Haywards,0.099,198,198
28/02/2023 10:00:00,28/02/2023 10:30:00,21,Northward at Haywards,0.109,217,217
28/02/2023 10:30:00,28/02/2023 11:00:00,22,Northward at Haywards,0.115,230,230
28/02/2023 11:00:00,28/02/2023 11:30:00,23,Northward at Haywards,0.123,246,246
28/02/2023 11:30:00,28/02/2023 12:00:00,24,Northward at Haywards,0.130,259,259
28/02/2023 12:00:00,28/02/2023 12:30:00,25,Northward at Haywards,0.128,256,256
28/02/2023 12:30:00,28/02/2023 13:00:00,26,Northward at Haywards,0.128,256,256
28/02/2023 13:00:00,28/02/2023 13:30:00,27,Northward at Haywards,0.124,248,248
28/02/2023 13:30:00,28/02/2023 14:00:00,28,Northward at Haywards,0.123,245,245
28/02/2023 14:00:00,28/02/2023 14:30:00,29,Northward at Haywards,0.123,246,246
28/02/2023 14:30:00,28/02/2023 15:00:00,30,Northward at Haywards,0.128,256,256
28/02/2023 15:00:00,28/02/2023 15:30:00,31,Northward at Haywards,0.150,299,299
28/02/2023 15:30:00,28/02/2023 16:00:00,32,Northward at Haywards,0.152,303,303
28/02/2023 16:00:00,28/02/2023 16:30:00,33,Northward at Haywards,0.144,288,288
28/02/2023 16:30:00,28/02/2023 17:00:00,34,Northward at Haywards,0.155,310,310
28/02/2023 17:00:00,28/02/2023 17:30:00,35,Northward at Haywards,0.136,272,272
28/02/2023 17:30:00,28/02/2023 18:00:00,36,Northward at Haywards,0.117,234,234
28/02/2023 18:00:00,28/02/2023 18:30:00,37,Northward at Haywards,0.102,204,204
28/02/2023 18:30:00,28/02/2023 19:00:00,38,Northward at Haywards,0.090,180,180
28/02/2023 19:00:00,28/02/2023 19:30:00,39,Northward at Haywards,0.085,169,169
28/02/2023 19:30:00,28/02/2023 20:00:00,40,Northward at Haywards,0.080,159,159
28/02/2023 20:00:00,28/02/2023 20:30:00,41,Northward at Haywards,0.076,151,151
28/02/2023 20:30:00,28/02/2023 21:00:00,42,Northward at Haywards,0.040,79,79
28/02/2023 21:00:00,28/02/2023 21:30:00,43,Northward at Haywards,0.040,79,79
28/02/2023 21:30:00,28/02/2023 22:00:00,44,Northward at Haywards,0.034,68,68
28/02/2023 22:00:00,28/02/2023 22:30:00,45,Northward at Haywards,0.024,48,48
28/02/2023 22:30:00,28/02/2023 23:00:00,46,Northward at Haywards,0.005,10,10
01/03/2023 00:00:00,01/03/2023 00:30:00,1,Northward at Haywards,0.027,54,54
01/03/2023 00:30:00,01/03/2023 01:00:00,2,Northward at Haywards,0.025,50,50
01/03/2023 01:00:00,01/03/2023 01:30:00,3,Northward at Haywards,0.017,34,34
01/03/2023 01:30:00,01/03/2023 02:00:00,4,Northward at Haywards,0.004,7,7
01/03/2023 03:30:00,01/03/2023 04:00:00,8,Northward at Haywards,0.019,37,37
01/03/2023 04:00:00,01/03/2023 04:30:00,9,Northward at Haywards,0.019,38,38
01/03/2023 04:30:00,01/03/2023 05:00:00,10,Northward at Haywards,0.022,44,44
01/03/2023 05:00:00,01/03/2023 05:30:00,11,Northward at Haywards,0.039,77,77
01/03/2023 05:30:00,01/03/2023 06:00:00,12,Northward at Haywards,0.041,81,81
01/03/2023 06:00:00,01/03/2023 06:30:00,13,Northward at Haywards,0.086,172,172
01/03/2023 06:30:00,01/03/2023 07:00:00,14,Northward at Haywards,0.108,216,216
01/03/2023 07:00:00,01/03/2023 07:30:00,15,Northward at Haywards,0.122,243,243
01/03/2023 07:30:00,01/03/2023 08:00:00,16,Northward at Haywards,0.127,254,254
01/03/2023 08:00:00,01/03/2023 08:30:00,17,Northward at Haywards,0.136,272,272
01/03/2023 08:30:00,01/03/2023 09:00:00,18,Northward at Haywards,0.154,307,307
01/03/2023 09:00:00,01/03/2023 09:30:00,19,Northward at Haywards,0.163,325,325
01/03/2023 09:30:00,01/03/2023 10:00:00,20,Northward at Haywards,0.153,306,306
01/03/2023 10:00:00,01/03/2023 10:30:00,21,Northward at Haywards,0.159,318,318
01/03/2023 10:30:00,01/03/2023 11:00:00,22,Northward at Haywards,0.153,306,306
01/03/2023 11:00:00,01/03/2023 11:30:00,23,Northward at Haywards,0.136,271,271
01/03/2023 11:30:00,01/03/2023 12:00:00,24,Northward at Haywards,0.134,268,268
01/03/2023 12:00:00,01/03/2023 12:30:00,25,Northward at Haywards,0.143,286,286
01/03/2023 12:30:00,01/03/2023 13:00:00,26,Northward at Haywards,0.144,287,287
01/03/2023 13:00:00,01/03/2023 13:30:00,27,Northward at Haywards,0.144,288,288
01/03/2023 13:30:00,01/03/2023 14:00:00,28,Northward at Haywards,0.136,271,271
01/03/2023 14:00:00,01/03/2023 14:30:00,29,Northward at Haywards,0.137,274,274
01/03/2023 14:30:00,01/03/2023 15:00:00,30,Northward at Haywards,0.131,262,262
01/03/2023 15:00:00,01/03/2023 15:30:00,31,Northward at Haywards,0.134,267,267
01/03/2023 15:30:00,01/03/2023 16:00:00,32,Northward at Haywards,0.154,308,308
01/03/2023 16:00:00,01/03/2023 16:30:00,33,Northward at Haywards,0.150,300,300
01/03/2023 16:30:00,01/03/2023 17:00:00,34,Northward at Haywards,0.148,295,295
01/03/2023 17:00:00,01/03/2023 17:30:00,35,Northward at Haywards,0.163,325,325
01/03/2023 17:30:00,01/03/2023 18:00:00,36,Northward at Haywards,0.141,281,281
01/03/2023 18:00:00,01/03/2023 18:30:00,37,Northward at Haywards,0.120,239,239
01/03/2023 18:30:00,01/03/2023 19:00:00,38,Northward at Haywards,0.102,203,203
01/03/2023 19:00:00,01/03/2023 19:30:00,39,Northward at Haywards,0.074,148,148
01/03/2023 19:30:00,01/03/2023 20:00:00,40,Northward at Haywards,0.065,129,129
01/03/2023 20:00:00,01/03/2023 20:30:00,41,Northward at Haywards,0.050,99,99
01/03/2023 20:30:00,01/03/2023 21:00:00,42,Northward at Haywards,0.041,81,81
01/03/2023 21:00:00,01/03/2023 21:30:00,43,Northward at Haywards,0.033,65,65
01/03/2023 21:30:00,01/03/2023 22:00:00,44,Northward at Haywards,0.026,52,52
01/03/2023 22:00:00,01/03/2023 22:30:00,45,Southward at Benmore,-0.017,-35,-35
01/03/2023 22:30:00,01/03/2023 23:00:00,46,Southward at Benmore,-0.022,-44,-44
01/03/2023 23:00:00,01/03/2023 23:30:00,47,Southward at Benmore,-0.038,-76,-76
01/03/2023 23:30:00,02/03/2023 00:00:00,48,Southward at Benmore,-0.052,-104,-104
02/03/2023 00:00:00,02/03/2023 00:30:00,1,Southward at Benmore,-0.042,-85,-85
02/03/2023 00:30:00,02/03/2023 01:00:00,2,Southward at Benmore,-0.049,-99,-99
02/03/2023 01:00:00,02/03/2023 01:30:00,3,Southward at Benmore,-0.053,-106,-106
02/03/2023 01:30:00,02/03/2023 02:00:00,4,Southward at Benmore,-0.076,-152,-152
02/03/2023 02:00:00,02/03/2023 02:30:00,5,Southward at Benmore,-0.080,-160,-160
02/03/2023 02:30:00,02/03/2023 03:00:00,6,Southward at Benmore,-0.078,-156,-156
02/03/2023 03:00:00,02/03/2023 03:30:00,7,Southward at Benmore,-0.077,-155,-155
02/03/2023 03:30:00,02/03/2023 04:00:00,8,Southward at Benmore,-0.075,-151,-151
02/03/2023 04:00:00,02/03/2023 04:30:00,9,Southward at Benmore,-0.072,-144,-144
02/03/2023 04:30:00,02/03/2023 05:00:00,10,Southward at Benmore,-0.076,-152,-152
02/03/2023 05:00:00,02/03/2023 05:30:00,11,Southward at Benmore,-0.063,-127,-127
02/03/2023 05:30:00,02/03/2023 06:00:00,12,Southward at Benmore,-0.049,-99,-99
02/03/2023 06:00:00,02/03/2023 06:30:00,13,Southward at Benmore,-0.036,-72,-72
02/03/2023 06:30:00,02/03/2023 07:00:00,14,Northward at Haywards,0.003,5,5
02/03/2023 07:00:00,02/03/2023 07:30:00,15,Northward at Haywards,0.042,84,84
02/03/2023 07:30:00,02/03/2023 08:00:00,16,Northward at Haywards,0.053,106,106
02/03/2023 08:00:00,02/03/2023 08:30:00,17,Northward at Haywards,0.049,97,97
02/03/2023 08:30:00,02/03/2023 09:00:00,18,Northward at Haywards,0.063,125,125
02/03/2023 09:00:00,02/03/2023 09:30:00,19,Northward at Haywards,0.071,141,141
02/03/2023 09:30:00,02/03/2023 10:00:00,20,Northward at Haywards,0.050,99,99
02/03/2023 10:00:00,02/03/2023 10:30:00,21,Northward at Haywards,0.052,104,104
02/03/2023 10:30:00,02/03/2023 11:00:00,22,Northward at Haywards,0.059,118,118
02/03/2023 11:00:00,02/03/2023 11:30:00,23,Northward at Haywards,0.065,130,130
02/03/2023 11:30:00,02/03/2023 12:00:00,24,Northward at Haywards,0.065,130,130
02/03/2023 12:00:00,02/03/2023 12:30:00,25,Northward at Haywards,0.090,180,180
02/03/2023 12:30:00,02/03/2023 13:00:00,26,Northward at Haywards,0.090,180,180
02/03/2023 13:00:00,02/03/2023 13:30:00,27,Northward at Haywards,0.063,126,126
02/03/2023 13:30:00,02/03/2023 14:00:00,28,Northward at Haywards,0.063,126,126
02/03/2023 14:00:00,02/03/2023 14:30:00,29,Northward at Haywards,0.057,114,114
02/03/2023 14:30:00,02/03/2023 15:00:00,30,Northward at Haywards,0.052,103,103
02/03/2023 15:00:00,02/03/2023 15:30:00,31,Northward at Haywards,0.051,102,102
02/03/2023 15:30:00,02/03/2023 16:00:00,32,Northward at Haywards,0.050,100,100
02/03/2023 16:00:00,02/03/2023 16:30:00,33,Northward at Haywards,0.038,76,76
02/03/2023 16:30:00,02/03/2023 17:00:00,34,Northward at Haywards,0.037,73,73
02/03/2023 17:00:00,02/03/2023 17:30:00,35,Northward at Haywards,0.052,103,103
02/03/2023 17:30:00,02/03/2023 18:00:00,36,Northward at Haywards,0.049,97,97
02/03/2023 18:00:00,02/03/2023 18:30:00,37,Northward at Haywards,0.046,92,92
02/03/2023 18:30:00,02/03/2023 19:00:00,38,Northward at Haywards,0.019,38,38
02/03/2023 19:00:00,02/03/2023 19:30:00,39,Northward at Haywards,0.018,36,36
02/03/2023 19:30:00,02/03/2023 20:00:00,40,Northward at Haywards,0.009,17,17
02/03/2023 21:00:00,02/03/2023 21:30:00,43,Southward at Benmore,-0.022,-44,-44
02/03/2023 21:30:00,02/03/2023 22:00:00,44,Southward at Benmore,-0.018,-36,-36
02/03/2023 22:00:00,02/03/2023 22:30:00,45,Southward at Benmore,-0.035,-70,-70
02/03/2023 22:30:00,02/03/2023 23:00:00,46,Southward at Benmore,-0.033,-66,-66
02/03/2023 23:00:00,02/03/2023 23:30:00,47,Southward at Benmore,-0.056,-112,-112
02/03/2023 23:30:00,03/03/2023 00:00:00,48,Southward at Benmore,-0.047,-94,-94
03/03/2023 00:00:00,03/03/2023 00:30:00,1,Southward at Benmore,-0.054,-109,-109
03/03/2023 00:30:00,03/03/2023 01:00:00,2,Southward at Benmore,-0.049,-99,-99
03/03/2023 01:00:00,03/03/2023 01:30:00,3,Southward at Benmore,-0.082,-164,-164
03/03/2023 01:30:00,03/03/2023 02:00:00,4,Southward at Benmore,-0.079,-158,-158
03/03/2023 02:00:00,03/03/2023 02:30:00,5,Southward at Benmore,-0.071,-142,-142
03/03/2023 02:30:00,03/03/2023 03:00:00,6,Southward at Benmore,-0.065,-130,-130
03/03/2023 03:00:00,03/03/2023 03:30:00,7,Southward at Benmore,-0.061,-122,-122